Location: Unspecified
(0.0000°N, 0.0000°E)
Time: 09:03:12
(UTC+00:00)

HTV-X1 - Pass Details

Date: 12 April 2026
Orbit: 463 x 473 km, 51.6° (Epoch: 10 April)

Event Time Altitude Azimuth Distance (km) Brightness Sun altitude
Exits shadow 04:01:44 19° 107° (ESE) 1,147 ? -29.4°
Drops below altitude 10° 04:03:44 10° 75° (ENE) 1,607 ? -28.9°
Sets 04:06:15 0° 59° (ENE) 2,481 ? -28.3°
